Location: Poughquag
(41.6090°N, 73.6820°W)
Time: 02:10:41
(UTC-04:00)

Transit 2A - Pass Details

Date: 31 May 2020
Orbit: 592 x 967 km, 66.7° (Epoch: 06 July)

Event Time Altitude Azimuth Distance (km) Brightness Sun altitude
Rises 23:25:11 0° 325° (NW) 3,571 10.8 -23.1°
Reaches altitude 10° 23:27:44 10° 321° (NW) 2,658 9.8 -23.3°
Maximum altitude 23:33:48 53° 246° (WSW) 1,169 6.8 -23.7°
Enters shadow 23:35:26 42° 202° (SSW) 1,339 6.8 -23.8°
Drops below altitude 10° 23:39:57 10° 172° (S) 2,689 - -24.1°
Sets 23:42:33 0° 167° (SSE) 3,616 - -24.2°
